Starlink 32710

operational
NORAD ID: 62604 Int'l Des: 2025-008 Owner: SPXS Country: US Constellation: starlink
LEOCIRCULAR

关于 Starlink 32710

正在加载描述...

实时位置

正在加载3D地球...

即将过境

高度历史

Altitude vs Time

uPlot chart will show altitude changes over time

两行轨道根数

1 62604U 25008T 25353.10340748 .00029273 00000-0 10679-2 0 9996
2 62604 43.0051 12.6920 0001041 271.2279 88.8454 15.27617296 53246
Epoch: Dec 19, 2025 • Age: 14 hours

当前状态

高度 495.2 km
速度 7.62 km/s
星下点 -42.49°S, 40.42°W
发射日期 Jan 13, 2025
运行时间 0.9 years
类型 internet

技术详情

分类 Payload
质量 730.00 kg
干质量 700.00 kg
总质量 730.00 kg
长度 0.30 m
直径 4.10 m
跨度 29.00 m
形状 Box + pan
制造商 SPXS
平台类型 Starlink V2M
阶段状态 In Orbit
所有者/国家 SPXS/US

大型星座

Loading constellations...